Location: Lucerne Valley
(34.4439°N, 116.9669°E)
Time: 22:55:50
(UTC-07:00)

Tiangong 2 - Pass Details

Date: 10 October 2017
Orbit: 388 x 392 km, 42.8° (Epoch: 17 October)

Event Time Altitude Azimuth Distance (km) Brightness Sun altitude
Exits shadow 13:20:03 27° 45° (NE) 794 3.1 -24.3°
Drops below altitude 10° 13:21:41 10° 55° (NE) 1,419 4.8 -23.9°
Sets 13:23:48 0° 60° (ENE) 2,277 6.1 -23.5°
